EB2EMZ-3 Weather Reports


time (UTC)temp
F
wind
direction
speed
knots
gust
knots
rain 1hr
in
rain 24hr
in
rain mn
in
humidity
%
barometer
mb
20260502194946 64 67 1.7 1.7 0.00 0.38 0.00 85 1017.9
20260502194446 64 112 0.9 5.2 0.00 0.38 0.00 85 1017.9
20260502193946 64 45 5.2 5.2 0.00 0.38 0.00 85 1018.0
20260502193446 64 135 1.7 5.2 0.00 0.38 0.00 84 1017.9
20260502192946 64 112 5.2 5.2 0.00 0.38 0.00 84 1018.0
20260502192446 64 112 2.6 4.3 0.00 0.38 0.00 84 1018.1
20260502191946 64 112 1.7 4.3 0.00 0.38 0.00 84 1018.1
20260502191446 64 112 1.7 5.2 0.00 0.38 0.00 84 1018.2
20260502190946 64 135 5.2 5.2 0.00 0.38 0.00 84 1018.0
20260502190446 64 90 5.2 6.1 0.00 0.38 0.00 84 1018.0
20260502185946 64 112 6.1 7.8 0.00 0.38 0.00 83 1018.0
20260502185446 64 112 7.8 7.8 0.00 0.38 0.00 83 1017.9
20260502184947 64 112 5.2 5.2 0.00 0.38 0.00 83 1017.8
20260502184446 64 112 5.2 5.2 0.00 0.38 0.00 83 1017.7
20260502183946 64 67 4.3 4.3 0.00 0.38 0.00 83 1017.8
20260502183446 64 67 2.6 4.3 0.00 0.38 0.00 83 1017.9
20260502182946 64 112 4.3 4.3 0.00 0.38 0.00 83 1018.0
20260502182446 64 112 0.0 3.5 0.00 0.38 0.00 83 1018.1
20260502181946 65 112 3.5 3.5 0.00 0.38 0.00 82 1018.0
20260502181446 65 112 3.5 3.5 0.00 0.38 0.00 82 1018.1
20260502180947 65 112 3.5 5.2 0.00 0.38 0.00 82 1018.1
20260502180447 65 90 5.2 5.2 0.00 0.38 0.00 82 1018.3
20260502170447 65 112 1.7 7.8 0.00 0.38 0.00 81 1018.6
20260502163947 66 135 9.6 9.6 0.00 0.38 0.00 80 1018.8
20260502163447 66 67 1.7 9.6 0.00 0.38 0.00 80 1018.9
20260502162947 66 112 9.6 9.6 0.00 0.38 0.00 80 1018.7
20260502162447 66 112 3.5 7.0 0.00 0.38 0.00 79 1018.6
20260502161947 66 135 7.0 7.0 0.00 0.38 0.00 79 1018.7
20260502161447 66 67 4.3 5.2 0.00 0.38 0.00 79 1018.8
20260502160947 66 67 3.5 7.0 0.00 0.38 0.00 78 1018.7
20260502160447 67 45 1.7 6.1 0.00 0.38 0.00 77 1019.0
20260502151947 69 90 8.7 8.7 0.00 0.38 0.00 75 1019.2
20260502151447 68 157 3.5 3.5 0.00 0.38 0.00 76 1019.0
20260502150948 68 157 3.5 7.8 0.00 0.38 0.00 76 1019.2
20260502150447 68 112 7.8 7.8 0.00 0.38 0.00 76 1019.2
20260502130447 69 112 7.8 7.8 0.00 0.38 0.00 75 1020.8
20260502123448 69 112 7.0 7.0 0.00 0.38 0.00 76 1021.1
20260502122948 69 135 5.2 5.2 0.00 0.38 0.00 76 1021.0
20260502122448 69 90 5.2 5.2 0.00 0.38 0.00 76 1021.0
20260502121948 69 90 4.3 11.3 0.00 0.38 0.00 75 1021.1
20260502121448 69 90 3.5 7.0 0.00 0.38 0.00 74 1021.3
20260502120948 69 112 7.0 7.0 0.00 0.38 0.00 75 1021.2
20260502120448 69 112 7.0 7.0 0.00 0.38 0.00 75 1021.2
20260502115448 69 90 5.2 8.7 0.00 0.38 0.00 74 1021.3
20260502114948 69 112 2.6 3.5 0.00 0.38 0.00 74 1021.1
20260502114448 70 112 3.5 6.1 0.00 0.38 0.00 74 1021.2
20260502113948 70 112 4.3 8.7 0.00 0.38 0.00 74 1021.1
20260502113448 70 112 8.7 10.4 0.00 0.38 0.00 73 1021.1
20260502112948 70 135 10.4 10.4 0.00 0.38 0.00 73 1021.3
20260502112448 70 90 5.2 9.6 0.00 0.38 0.00 74 1021.5
20260502111948 70 112 9.6 9.6 0.00 0.38 0.00 74 1021.5
20260502111448 70 135 6.1 6.1 0.00 0.38 0.00 74 1021.6
20260502110948 70 112 6.1 6.1 0.00 0.38 0.00 74 1021.6
20260502110448 69 135 2.6 5.2 0.00 0.38 0.00 75 1021.5
20260502105948 69 112 5.2 5.2 0.00 0.38 0.00 74 1021.7
20260502105448 69 22 2.6 7.0 0.00 0.38 0.00 74 1021.8
20260502104948 69 112 7.0 7.0 0.00 0.38 0.00 74 1021.8
20260502104448 69 22 3.5 7.0 0.00 0.38 0.00 75 1021.9
20260502103948 69 157 5.2 5.2 0.00 0.38 0.00 76 1021.9
20260502103448 69 67 5.2 5.2 0.00 0.38 0.00 76 1021.7
20260502102948 69 112 5.2 5.2 0.00 0.38 0.00 76 1021.9
20260502102448 68 90 3.5 8.7 0.00 0.38 0.00 77 1021.7
20260502101948 68 112 8.7 8.7 0.00 0.38 0.00 76 1021.8
20260502101448 68 45 0.0 0.0 0.00 0.38 0.00 78 1021.8
20260502100948 68 45 0.0 0.0 0.00 0.38 0.00 78 1021.7
20260502100448 68 45 0.0 2.6 0.00 0.38 0.00 79 1021.6
20260502091448 67 135 7.8 7.8 0.00 0.38 0.00 80 1021.6
20260502090948 67 90 6.1 6.1 0.00 0.38 0.00 81 1021.8
20260502090448 66 112 3.5 3.5 0.00 0.38 0.00 82 1021.9
20260502071448 62 22 0.0 0.0 0.02 0.38 0.00 93 1022.1
20260502070948 61 22 0.0 0.9 0.02 0.38 0.00 93 1022.0
20260502070449 61 22 0.9 1.7 0.02 0.38 0.00 93 1022.1
20260502065949 61 22 0.0 3.5 0.02 0.38 0.00 93 1022.0
20260502065449 60 0 3.5 3.5 0.04 0.38 0.00 93 1022.1
20260502064949 60 45 0.0 2.6 0.04 0.38 0.00 93 1022.1
20260502064449 60 337 2.6 2.6 0.04 0.38 0.00 93 1022.0
20260502063949 60 45 0.9 0.9 0.04 0.38 0.00 93 1022.1
20260502063449 60 22 0.9 0.9 0.04 0.38 0.00 93 1021.9
20260502062949 60 45 0.0 2.6 0.04 0.38 0.00 93 1021.9
20260502062449 60 22 0.0 1.7 0.04 0.38 0.00 93 1022.0
20260502061949 60 45 0.0 0.0 0.04 0.36 0.00 93 1021.9
20260502061449 60 45 0.0 0.0 0.04 0.36 0.00 93 1021.9
20260502060949 60 45 0.0 2.6 0.10 0.36 0.00 93 1021.9
20260502060449 60 0 0.9 0.9 0.10 0.36 0.00 93 1021.8
20260502055949 60 22 0.9 1.7 0.10 0.36 0.00 93 1021.8
20260502055449 60 22 1.7 1.7 0.08 0.34 0.00 93 1021.7
20260502054949 60 45 0.0 0.0 0.08 0.34 0.00 93 1021.7
20260502054449 60 45 0.0 0.0 0.10 0.34 0.00 93 1021.7
20260502053949 60 45 0.0 0.0 0.10 0.34 0.00 93 1021.6
20260502053449 60 45 0.0 3.5 0.10 0.34 0.00 93 1021.6
20260502052949 60 0 3.5 3.5 0.10 0.34 0.00 93 1021.6
20260502052449 60 67 0.0 2.6 0.12 0.34 0.00 93 1021.5
20260502051949 60 135 2.6 2.6 0.18 0.32 0.00 93 1021.5
20260502051449 59 67 0.0 0.0 0.18 0.32 0.00 93 1021.5
20260502050949 59 67 0.0 1.7 0.12 0.26 0.00 92 1021.4
20260502050449 59 90 1.7 1.7 0.12 0.26 0.00 92 1021.4
20260502045949 59 67 0.0 0.0 0.16 0.26 0.00 92 1021.5
20260502045449 59 90 0.0 0.0 0.20 0.26 0.00 92 1021.5
20260502044949 60 112 0.0 4.3 0.20 0.26 0.00 92 1021.4
20260502044449 59 67 4.3 4.3 0.18 0.24 0.00 92 1021.3
20260502043949 59 45 0.0 0.0 0.18 0.24 0.00 92 1021.3
20260502043449 60 67 0.0 0.0 0.18 0.24 0.00 92 1021.2
20260502042949 60 22 0.0 0.0 0.16 0.22 0.00 92 1021.2
20260502042449 60 90 0.0 6.1 0.18 0.22 0.00 92 1021.1
20260502041949 60 67 0.0 1.7 0.12 0.14 0.00 92 1021.2
20260502041449 60 22 1.7 1.7 0.12 0.14 0.00 92 1021.3
20260502040949 61 67 0.0 2.6 0.12 0.14 0.00 92 1021.2
20260502040449 61 112 0.0 0.0 0.12 0.14 0.00 92 1021.3
20260502035949 61 90 0.0 0.0 0.08 0.10 0.00 92 1021.2
20260502035449 61 22 0.0 4.3 0.06 0.06 0.00 92 1021.4
20260502034949 62 112 4.3 4.3 0.06 0.06 0.00 91 1021.3
20260502034449 62 90 0.0 2.6 0.06 0.06 0.00 91 1021.3
20260502033949 62 45 2.6 2.6 0.06 0.06 0.00 91 1021.3
20260502033449 62 45 1.7 1.7 0.06 0.06 0.00 91 1021.1
20260502032949 62 45 0.0 0.0 0.04 0.04 0.00 91 1021.3
20260502032449 62 45 0.0 0.0 0.04 0.04 0.00 91 1021.1
20260502031949 62 112 0.0 5.2 0.02 0.02 0.00 91 1021.1
20260502031449 62 135 5.2 5.2 0.02 0.02 0.00 90 1021.2
20260502030949 62 112 0.0 3.5 0.02 0.02 0.00 90 1021.1
20260502030449 62 112 2.6 4.3 0.02 0.02 0.00 90 1021.3
20260502025949 62 135 4.3 4.3 0.02 0.02 0.00 89 1021.4
20260502025449 62 135 0.9 4.3 0.00 0.00 0.00 89 1021.4
20260502024949 63 90 3.5 3.5 0.00 0.00 0.00 88 1021.4
20260502024449 63 112 2.6 2.6 0.00 0.00 0.00 88 1021.3
20260502023949 63 112 2.6 5.2 0.00 0.00 0.00 88 1021.4
20260502023449 64 112 2.6 2.6 0.00 0.00 0.00 88 1021.3
20260502022949 64 112 2.6 2.6 0.00 0.00 0.00 88 1021.3
20260502022449 64 180 2.6 6.1 0.00 0.00 0.00 88 1021.3
20260502021949 64 135 6.1 6.1 0.00 0.00 0.00 88 1021.3
20260502021449 64 112 1.7 3.5 0.00 0.00 0.00 87 1021.4
20260502020949 64 112 3.5 7.0 0.00 0.00 0.00 87 1021.3
20260502020449 64 112 3.5 3.5 0.00 0.00 0.00 87 1021.3
20260502015949 64 67 2.6 6.1 0.00 0.00 0.00 87 1021.5
20260502015449 64 45 5.2 5.2 0.00 0.00 0.00 87 1021.3
20260502014949 64 0 5.2 5.2 0.00 0.00 0.00 87 1021.5
20260502014449 64 135 3.5 3.5 0.00 0.00 0.00 87 1021.6
20260502013949 64 90 3.5 3.5 0.00 0.00 0.00 87 1021.5
20260502013449 64 112 1.7 8.7 0.00 0.00 0.00 87 1021.6
20260502012949 64 157 8.7 8.7 0.00 0.00 0.00 87 1021.5
20260502012450 64 112 0.9 0.9 0.00 0.00 0.00 87 1021.5
20260502011949 64 90 0.9 2.6 0.00 0.00 0.00 87 1021.5
20260502011450 64 22 0.9 3.5 0.00 0.00 0.00 87 1021.8
20260502010950 64 90 0.9 2.6 0.00 0.00 0.00 87 1021.9
20260502010450 64 45 1.7 3.5 0.00 0.00 0.00 87 1022.0
20260502005950 64 45 3.5 3.5 0.00 0.00 0.00 87 1021.8
20260502005450 64 112 2.6 5.2 0.00 0.00 0.00 87 1022.0
20260502004950 64 67 5.2 5.2 0.00 0.00 0.00 87 1022.1
20260502004450 64 112 2.6 9.6 0.00 0.00 0.00 86 1022.0
20260502003950 64 112 9.6 9.6 0.00 0.00 0.00 86 1022.2
20260502003450 64 112 4.3 4.3 0.00 0.00 0.00 86 1022.2
20260502002950 64 112 4.3 4.3 0.00 0.00 0.00 86 1022.2
20260502002450 64 45 0.0 3.5 0.00 0.00 0.00 86 1022.2
20260502001950 64 135 1.7 1.7 0.00 0.00 0.00 86 1022.3
20260502001450 64 67 0.0 3.5 0.00 0.00 0.00 86 1022.2
20260502000950 64 112 3.5 3.5 0.00 0.00 0.00 86 1022.4
20260502000450 64 135 1.7 1.7 0.00 0.00 0.00 86 1022.3
20260501235950 64 22 0.9 1.7 0.00 0.00 0.00 86 1022.4
20260501235450 64 157 1.7 5.2 0.00 0.00 0.00 86 1022.5
20260501233450 64 135 8.7 8.7 0.00 0.00 0.00 85 1022.7
20260501232950 64 67 4.3 4.3 0.00 0.00 0.00 85 1022.7
20260501232450 64 67 0.0 3.5 0.00 0.00 0.00 85 1022.8
20260501231950 64 135 3.5 3.5 0.00 0.00 0.00 85 1023.0
20260501231450 63 67 0.9 0.9 0.00 0.00 0.00 85 1023.0
20260501230950 63 67 0.9 3.5 0.00 0.00 0.00 85 1022.9
20260501230450 63 112 3.5 3.5 0.00 0.00 0.00 84 1023.0
20260501225950 63 112 1.7 1.7 0.00 0.00 0.00 84 1023.0
20260501225450 63 22 0.0 3.5 0.00 0.00 0.00 84 1023.0
20260501224950 63 45 0.0 3.5 0.00 0.00 0.00 84 1022.9
20260501224450 63 22 1.7 1.7 0.00 0.00 0.00 84 1022.9
20260501223950 64 22 1.7 1.7 0.00 0.00 0.00 83 1022.8
20260501223450 64 112 0.0 0.0 0.00 0.00 0.00 83 1022.8
20260501222950 64 45 0.0 0.0 0.00 0.00 0.00 83 1022.8
20260501222450 64 90 0.0 4.3 0.00 0.00 0.00 83 1022.7
20260501221950 64 67 1.7 2.6 0.00 0.00 0.00 83 1022.8
20260501221450 64 135 2.6 2.6 0.00 0.00 0.00 83 1022.7
20260501220950 64 112 0.0 2.6 0.00 0.00 0.00 83 1022.9
20260501220450 64 22 0.0 0.0 0.00 0.00 0.00 82 1023.0
20260501215950 64 22 0.0 2.6 0.00 0.00 0.00 82 1023.0
20260501215450 64 90 2.6 2.6 0.00 0.00 0.00 82 1023.0
20260501214950 64 112 0.0 0.0 0.00 0.00 0.00 82 1023.0
20260501214450 64 112 0.0 4.3 0.00 0.00 0.00 82 1023.0
20260501213950 64 112 4.3 4.3 0.00 0.00 0.00 82 1023.0
20260501213450 64 67 0.0 0.0 0.00 0.00 0.00 82 1023.0
20260501212950 64 45 0.0 2.6 0.00 0.00 0.00 82 1023.0
20260501212450 64 45 2.6 2.6 0.00 0.00 0.00 82 1022.9
20260501211950 64 0 0.9 0.9 0.00 0.00 0.00 82 1023.0
20260501211450 64 45 0.0 0.9 0.00 0.00 0.00 82 1022.9
20260501210950 64 67 0.9 4.3 0.00 0.00 0.00 82 1023.1
20260501210450 64 90 2.6 2.6 0.00 0.00 0.00 82 1022.9
20260501205950 64 90 2.6 2.6 0.00 0.00 0.00 82 1023.1
20260501205450 64 45 0.0 5.2 0.00 0.00 0.00 82 1023.0
20260501204950 64 45 5.2 5.2 0.00 0.00 0.00 83 1023.2
20260501204450 64 45 2.6 3.5 0.00 0.00 0.00 82 1023.0
20260501203950 64 157 2.6 5.2 0.00 0.00 0.00 82 1023.0
20260501203450 64 90 5.2 5.2 0.00 0.00 0.00 82 1023.0
20260501202950 64 90 1.7 1.7 0.00 0.00 0.00 82 1022.8
20260501202450 64 90 1.7 1.7 0.00 0.00 0.00 82 1022.9
20260501201951 64 90 1.7 2.6 0.00 0.00 0.00 81 1022.9
20260501201450 64 135 2.6 5.2 0.00 0.00 0.00 81 1023.0
20260501200950 64 90 5.2 5.2 0.00 0.00 0.00 81 1022.9
20260501200450 64 135 0.0 2.6 0.00 0.00 0.00 81 1022.9
20260501195951 64 112 0.0 0.0 0.00 0.00 0.00 81 1022.8
20260501195451 64 67 0.0 2.6 0.00 0.00 0.00 81 1022.7